| time (UTC) | temp F | wind direction | speed knots | gust knots | rain 1hr in | rain 24hr in | rain mn in | humidity % | barometer mb |
| 20260831234136 | 96 | 142 | 3.5 | 8.7 | 0.00 | 0.00 | 0.00 | 46 | 1012.2 |
| 20260831233627 | 96 | 150 | 3.5 | 7.8 | 0.00 | 0.00 | 0.00 | 46 | 1012.2 |
| 20260831232549 | 97 | 190 | 2.6 | 5.2 | 0.00 | 0.00 | 0.00 | 45 | 1012.2 |
| 20260831231611 | 97 | 153 | 6.1 | 7.8 | 0.00 | 0.00 | 0.00 | 44 | 1012.3 |
| 20260831231103 | 97 | 172 | 1.7 | 9.6 | 0.00 | 0.00 | 0.00 | 45 | 1012.2 |
| 20260831230127 | 97 | 165 | 6.1 | 12.2 | 0.00 | 0.00 | 0.00 | 45 | 1012.3 |
| 20260831225542 | 97 | 174 | 3.5 | 12.2 | 0.00 | 0.00 | 0.00 | 46 | 1012.4 |
| 20260831225155 | 97 | 150 | 4.3 | 8.7 | 0.00 | 0.00 | 0.00 | 46 | 1012.3 |
| 20260831224555 | 97 | 178 | 3.5 | 7.8 | 0.00 | 0.00 | 0.00 | 45 | 1012.3 |
| 20260831224108 | 97 | 99 | 2.6 | 7.8 | 0.00 | 0.00 | 0.00 | 46 | 1012.3 |
| 20260831223126 | 97 | 121 | 5.2 | 8.7 | 0.00 | 0.00 | 0.00 | 47 | 1012.4 |
| 20260831222638 | 97 | 159 | 7.0 | 10.4 | 0.00 | 0.00 | 0.00 | 47 | 1012.4 |
| 20260831222118 | 97 | 159 | 2.6 | 8.7 | 0.00 | 0.00 | 0.00 | 47 | 1012.5 |
| 20260831221545 | 97 | 178 | 4.3 | 8.7 | 0.00 | 0.00 | 0.00 | 48 | 1012.6 |
| 20260831221054 | 96 | 136 | 4.3 | 6.1 | 0.00 | 0.00 | 0.00 | 47 | 1012.5 |
| 20260831220606 | 96 | 140 | 3.5 | 7.8 | 0.00 | 0.00 | 0.00 | 48 | 1012.6 |
| 20260831220132 | 96 | 180 | 5.2 | 7.8 | 0.00 | 0.00 | 0.00 | 47 | 1012.6 |
| 20260831215539 | 96 | 151 | 6.1 | 9.6 | 0.00 | 0.00 | 0.00 | 47 | 1012.6 |
| 20260831215051 | 97 | 143 | 6.1 | 9.6 | 0.00 | 0.00 | 0.00 | 47 | 1012.6 |
| 20260831214633 | 97 | 89 | 5.2 | 7.8 | 0.00 | 0.00 | 0.00 | 46 | 1012.7 |
| 20260831214145 | 98 | 123 | 2.6 | 9.6 | 0.00 | 0.00 | 0.00 | 47 | 1012.7 |
| 20260831213636 | 97 | 117 | 4.3 | 9.6 | 0.00 | 0.00 | 0.00 | 47 | 1012.8 |
| 20260831213056 | 97 | 130 | 4.3 | 8.7 | 0.00 | 0.00 | 0.00 | 47 | 1012.8 |
| 20260831212541 | 97 | 204 | 7.8 | 8.7 | 0.00 | 0.00 | 0.00 | 46 | 1012.8 |
| 20260831211610 | 97 | 163 | 4.3 | 10.4 | 0.00 | 0.00 | 0.00 | 46 | 1012.9 |
| 20260831211114 | 97 | 167 | 4.3 | 12.2 | 0.00 | 0.00 | 0.00 | 46 | 1012.9 |
| 20260831210125 | 97 | 257 | 3.5 | 6.1 | 0.00 | 0.00 | 0.00 | 47 | 1013.0 |
| 20260831205631 | 97 | 163 | 1.7 | 7.8 | 0.00 | 0.00 | 0.00 | 47 | 1013.1 |
| 20260831205114 | 97 | 124 | 4.3 | 13.0 | 0.00 | 0.00 | 0.00 | 45 | 1013.3 |
| 20260831204539 | 97 | 182 | 6.1 | 13.0 | 0.00 | 0.00 | 0.00 | 44 | 1013.3 |
| 20260831204051 | 97 | 142 | 6.1 | 9.6 | 0.00 | 0.00 | 0.00 | 45 | 1013.4 |
| 20260831203113 | 97 | 142 | 5.2 | 8.7 | 0.00 | 0.00 | 0.00 | 46 | 1013.6 |
| 20260831202625 | 97 | 173 | 2.6 | 7.8 | 0.00 | 0.00 | 0.00 | 47 | 1013.6 |
| 20260831202129 | 96 | 198 | 3.5 | 8.7 | 0.00 | 0.00 | 0.00 | 47 | 1013.7 |
| 20260831201601 | 96 | 113 | 1.7 | 5.2 | 0.00 | 0.00 | 0.00 | 48 | 1013.8 |
| 20260831201113 | 96 | 90 | 2.6 | 9.6 | 0.00 | 0.00 | 0.00 | 48 | 1014.0 |
| 20260831200614 | 96 | 123 | 5.2 | 13.9 | 0.00 | 0.00 | 0.00 | 47 | 1014.0 |
| 20260831200046 | 96 | 148 | 7.8 | 13.9 | 0.00 | 0.00 | 0.00 | 48 | 1014.1 |
| 20260831195558 | 96 | 92 | 2.6 | 10.4 | 0.00 | 0.00 | 0.00 | 50 | 1014.1 |
| 20260831194621 | 95 | 78 | 5.2 | 9.6 | 0.00 | 0.00 | 0.00 | 50 | 1014.3 |
| 20260831194134 | 95 | 92 | 2.6 | 10.4 | 0.00 | 0.00 | 0.00 | 52 | 1014.4 |
| 20260831193638 | 95 | 161 | 1.7 | 7.8 | 0.00 | 0.00 | 0.00 | 52 | 1014.4 |
| 20260831192543 | 95 | 98 | 6.1 | 8.7 | 0.00 | 0.00 | 0.00 | 51 | 1014.6 |
| 20260831191545 | 95 | 180 | 4.3 | 10.4 | 0.00 | 0.00 | 0.00 | 52 | 1014.7 |
| 20260831191056 | 95 | 130 | 6.1 | 10.4 | 0.00 | 0.00 | 0.00 | 54 | 1014.8 |
| 20260831190115 | 94 | 128 | 4.3 | 8.7 | 0.00 | 0.00 | 0.00 | 54 | 1014.8 |
| 20260831185623 | 94 | 76 | 3.5 | 9.6 | 0.00 | 0.00 | 0.00 | 54 | 1014.9 |
| 20260831185128 | 94 | 168 | 5.2 | 9.6 | 0.00 | 0.00 | 0.00 | 54 | 1014.9 |
| 20260831184558 | 94 | 181 | 0.9 | 8.7 | 0.00 | 0.00 | 0.00 | 53 | 1015.0 |
| 20260831184110 | 94 | 171 | 6.1 | 8.7 | 0.00 | 0.00 | 0.00 | 53 | 1015.1 |
| 20260831183609 | 94 | 99 | 2.6 | 7.8 | 0.00 | 0.00 | 0.00 | 55 | 1015.1 |
| 20260831183039 | 94 | 134 | 1.7 | 8.7 | 0.00 | 0.00 | 0.00 | 55 | 1015.2 |
| 20260831182646 | 94 | 146 | 4.3 | 8.7 | 0.00 | 0.00 | 0.00 | 55 | 1015.2 |
| 20260831182134 | 94 | 142 | 1.7 | 7.0 | 0.00 | 0.00 | 0.00 | 56 | 1015.4 |
| 20260831181601 | 94 | 148 | 2.6 | 9.6 | 0.00 | 0.00 | 0.00 | 56 | 1015.4 |
| 20260831181106 | 94 | 132 | 4.3 | 7.8 | 0.00 | 0.00 | 0.00 | 57 | 1015.4 |
| 20260831180128 | 93 | 150 | 4.3 | 9.6 | 0.00 | 0.00 | 0.00 | 55 | 1015.6 |
| 20260831175543 | 93 | 172 | 1.7 | 10.4 | 0.00 | 0.00 | 0.00 | 56 | 1015.6 |
| 20260831174606 | 93 | 88 | 4.3 | 11.3 | 0.00 | 0.00 | 0.00 | 59 | 1015.8 |
| 20260831174058 | 93 | 113 | 3.5 | 11.3 | 0.00 | 0.00 | 0.00 | 58 | 1015.8 |
| 20260831173119 | 92 | 74 | 4.3 | 9.6 | 0.00 | 0.00 | 0.00 | 60 | 1015.8 |
| 20260831172630 | 92 | 26 | 2.6 | 7.8 | 0.00 | 0.00 | 0.00 | 61 | 1015.9 |
| 20260831172136 | 91 | 99 | 2.6 | 7.8 | 0.00 | 0.00 | 0.00 | 62 | 1015.9 |
| 20260831171603 | 91 | 156 | 1.7 | 7.8 | 0.00 | 0.00 | 0.00 | 63 | 1016.0 |
| 20260831171119 | 90 | 115 | 2.6 | 6.1 | 0.00 | 0.00 | 0.00 | 63 | 1016.0 |
| 20260831170120 | 91 | 157 | 1.7 | 7.8 | 0.00 | 0.00 | 0.00 | 64 | 1016.2 |
| 20260831165633 | 91 | 76 | 1.7 | 6.1 | 0.00 | 0.00 | 0.00 | 65 | 1016.2 |
| 20260831165133 | 90 | 189 | 0.9 | 6.1 | 0.00 | 0.00 | 0.00 | 64 | 1016.3 |
| 20260831164544 | 90 | 131 | 1.7 | 7.0 | 0.00 | 0.00 | 0.00 | 65 | 1016.3 |
| 20260831164048 | 90 | 80 | 3.5 | 7.8 | 0.00 | 0.00 | 0.00 | 65 | 1016.4 |
| 20260831163118 | 90 | 138 | 1.7 | 7.0 | 0.00 | 0.00 | 0.00 | 69 | 1016.4 |
| 20260831162613 | 89 | 139 | 3.5 | 7.8 | 0.00 | 0.00 | 0.00 | 68 | 1016.4 |
| 20260831161615 | 89 | 123 | 2.6 | 10.4 | 0.00 | 0.00 | 0.00 | 68 | 1016.3 |
| 20260831161127 | 89 | 144 | 3.5 | 10.4 | 0.00 | 0.00 | 0.00 | 69 | 1016.3 |
| 20260831160147 | 88 | 153 | 1.7 | 8.7 | 0.00 | 0.00 | 0.00 | 70 | 1016.4 |
| 20260831155633 | 88 | 221 | 2.6 | 8.7 | 0.00 | 0.00 | 0.00 | 70 | 1016.4 |
| 20260831155131 | 88 | 279 | 3.5 | 7.0 | 0.00 | 0.00 | 0.00 | 74 | 1016.3 |
| 20260831154541 | 87 | 205 | 4.3 | 7.0 | 0.00 | 0.00 | 0.00 | 74 | 1016.3 |
| 20260831154046 | 87 | 224 | 0.0 | 7.0 | 0.00 | 0.00 | 0.00 | 75 | 1016.3 |
| 20260831153114 | 86 | 241 | 3.5 | 7.0 | 0.00 | 0.00 | 0.00 | 76 | 1016.2 |
| 20260831152620 | 86 | 221 | 3.5 | 6.1 | 0.00 | 0.00 | 0.00 | 79 | 1016.2 |
| 20260831152136 | 86 | 227 | 2.6 | 7.0 | 0.00 | 0.00 | 0.00 | 79 | 1016.1 |
| 20260831151603 | 85 | 267 | 3.5 | 7.0 | 0.00 | 0.00 | 0.00 | 81 | 1016.1 |
| 20260831151108 | 85 | 245 | 4.3 | 7.0 | 0.00 | 0.00 | 0.00 | 82 | 1016.1 |
| 20260831150131 | 84 | 292 | 2.6 | 6.1 | 0.00 | 0.00 | 0.00 | 83 | 1016.2 |
| 20260831145543 | 84 | 248 | 2.6 | 6.1 | 0.00 | 0.00 | 0.00 | 84 | 1016.1 |
| 20260831144604 | 84 | 192 | 4.3 | 6.1 | 0.00 | 0.00 | 0.00 | 85 | 1016.2 |
| 20260831144118 | 84 | 201 | 0.0 | 6.1 | 0.00 | 0.00 | 0.00 | 85 | 1016.3 |
| 20260831143117 | 83 | 218 | 0.9 | 4.3 | 0.00 | 0.00 | 0.00 | 87 | 1016.2 |
| 20260831142629 | 83 | 231 | 0.9 | 3.5 | 0.00 | 0.00 | 0.00 | 88 | 1016.1 |
| 20260831142134 | 82 | 202 | 0.9 | 2.6 | 0.00 | 0.00 | 0.00 | 89 | 1016.0 |
| 20260831141602 | 82 | 202 | 0.0 | 4.3 | 0.00 | 0.00 | 0.00 | 89 | 1016.1 |
| 20260831141054 | 82 | 202 | 1.7 | 4.3 | 0.00 | 0.00 | 0.00 | 89 | 1016.0 |
| 20260831140054 | 81 | 158 | 0.0 | 0.0 | 0.00 | 0.00 | 0.00 | 90 | 1016.0 |
| 20260831135558 | 81 | 154 | 0.0 | 0.0 | 0.00 | 0.00 | 0.00 | 90 | 1015.9 |
| 20260831134630 | 80 | 153 | 0.0 | 0.0 | 0.00 | 0.00 | 0.00 | 91 | 1015.8 |
| 20260831134113 | 80 | 153 | 0.0 | 0.0 | 0.00 | 0.00 | 0.00 | 91 | 1015.7 |
| 20260831133625 | 79 | 153 | 0.0 | 0.0 | 0.00 | 0.00 | 0.00 | 92 | 1015.6 |
| 20260831132547 | 79 | 153 | 0.0 | 0.0 | 0.00 | 0.00 | 0.00 | 92 | 1015.5 |
| 20260831131610 | 78 | 153 | 0.0 | 0.0 | 0.00 | 0.00 | 0.00 | 92 | 1015.4 |
| 20260831131122 | 78 | 153 | 0.0 | 0.0 | 0.00 | 0.00 | 0.00 | 93 | 1015.4 |
| 20260831130627 | 78 | 152 | 0.0 | 0.0 | 0.00 | 0.00 | 0.00 | 93 | 1015.3 |
| 20260831130059 | 77 | 150 | 0.0 | 0.0 | 0.00 | 0.00 | 0.00 | 92 | 1015.3 |
| 20260831125610 | 77 | 150 | 0.0 | 0.0 | 0.00 | 0.00 | 0.00 | 92 | 1015.3 |
| 20260831124608 | 76 | 150 | 0.0 | 0.0 | 0.00 | 0.00 | 0.00 | 92 | 1015.3 |
| 20260831124114 | 77 | 150 | 0.0 | 0.0 | 0.00 | 0.00 | 0.00 | 92 | 1015.2 |
| 20260831123121 | 76 | 150 | 0.0 | 0.0 | 0.00 | 0.00 | 0.00 | 93 | 1015.1 |
| 20260831122626 | 76 | 151 | 0.0 | 0.0 | 0.00 | 0.00 | 0.00 | 93 | 1015.0 |
| 20260831122116 | 76 | 151 | 0.0 | 0.0 | 0.00 | 0.00 | 0.00 | 93 | 1015.0 |
| 20260831121547 | 76 | 151 | 0.0 | 0.0 | 0.00 | 0.00 | 0.00 | 93 | 1014.9 |
| 20260831121148 | 77 | 151 | 0.0 | 0.0 | 0.00 | 0.00 | 0.00 | 93 | 1014.8 |
| 20260831120543 | 76 | 152 | 0.0 | 0.0 | 0.00 | 0.00 | 0.00 | 92 | 1014.8 |
| 20260831120048 | 76 | 152 | 0.0 | 0.0 | 0.00 | 0.00 | 0.00 | 92 | 1014.8 |
| 20260831115558 | 76 | 152 | 0.0 | 0.0 | 0.00 | 0.00 | 0.00 | 92 | 1014.8 |
| 20260831114621 | 77 | 152 | 0.0 | 0.0 | 0.00 | 0.00 | 0.00 | 92 | 1014.7 |
| 20260831114133 | 77 | 152 | 0.0 | 0.0 | 0.00 | 0.00 | 0.00 | 92 | 1014.7 |
| 20260831113614 | 77 | 152 | 0.0 | 0.0 | 0.00 | 0.00 | 0.00 | 92 | 1014.7 |
| 20260831113042 | 77 | 152 | 0.0 | 0.0 | 0.00 | 0.00 | 0.00 | 91 | 1014.7 |
| 20260831112547 | 77 | 152 | 0.0 | 0.0 | 0.00 | 0.00 | 0.00 | 91 | 1014.7 |
| 20260831111621 | 77 | 152 | 0.0 | 0.0 | 0.00 | 0.00 | 0.00 | 91 | 1014.6 |
| 20260831111125 | 77 | 152 | 0.0 | 0.0 | 0.00 | 0.00 | 0.00 | 92 | 1014.6 |
| 20260831110631 | 77 | 151 | 0.0 | 0.0 | 0.00 | 0.00 | 0.00 | 92 | 1014.6 |
| 20260831110041 | 77 | 151 | 0.0 | 0.0 | 0.00 | 0.00 | 0.00 | 92 | 1014.6 |
| 20260831105545 | 77 | 151 | 0.0 | 0.0 | 0.00 | 0.00 | 0.00 | 92 | 1014.6 |
| 20260831105155 | 77 | 151 | 0.0 | 0.0 | 0.00 | 0.00 | 0.00 | 92 | 1014.6 |
| 20260831104554 | 77 | 151 | 0.0 | 0.0 | 0.00 | 0.00 | 0.00 | 92 | 1014.6 |
| 20260831104107 | 77 | 151 | 0.0 | 0.0 | 0.00 | 0.00 | 0.00 | 92 | 1014.6 |
| 20260831103617 | 77 | 151 | 0.0 | 0.0 | 0.00 | 0.00 | 0.00 | 92 | 1014.5 |
| 20260831103041 | 77 | 151 | 0.0 | 0.0 | 0.00 | 0.00 | 0.00 | 92 | 1014.5 |
| 20260831102650 | 77 | 151 | 0.0 | 0.0 | 0.00 | 0.00 | 0.00 | 92 | 1014.5 |
| 20260831102138 | 76 | 151 | 0.0 | 0.0 | 0.00 | 0.00 | 0.00 | 92 | 1014.5 |
| 20260831101602 | 76 | 151 | 0.0 | 0.0 | 0.00 | 0.00 | 0.00 | 92 | 1014.6 |
| 20260831101115 | 76 | 151 | 0.0 | 0.0 | 0.00 | 0.00 | 0.00 | 91 | 1014.5 |
| 20260831100054 | 76 | 151 | 0.0 | 0.0 | 0.00 | 0.00 | 0.00 | 91 | 1014.5 |
| 20260831095606 | 76 | 151 | 0.0 | 0.0 | 0.00 | 0.00 | 0.00 | 91 | 1014.5 |
| 20260831094609 | 76 | 150 | 0.0 | 0.0 | 0.00 | 0.00 | 0.00 | 91 | 1014.5 |
| 20260831094053 | 76 | 150 | 0.0 | 1.7 | 0.00 | 0.00 | 0.00 | 91 | 1014.5 |
| 20260831093605 | 77 | 150 | 0.0 | 4.3 | 0.00 | 0.00 | 0.00 | 91 | 1014.5 |
| 20260831093131 | 77 | 150 | 1.7 | 4.3 | 0.00 | 0.00 | 0.00 | 90 | 1014.5 |
| 20260831092644 | 77 | 150 | 0.9 | 5.2 | 0.00 | 0.00 | 0.00 | 89 | 1014.6 |
| 20260831092127 | 77 | 150 | 2.6 | 5.2 | 0.00 | 0.00 | 0.00 | 89 | 1014.6 |
| 20260831091557 | 77 | 175 | 0.9 | 2.6 | 0.00 | 0.00 | 0.00 | 89 | 1014.5 |
| 20260831091107 | 77 | 180 | 0.0 | 0.0 | 0.00 | 0.00 | 0.00 | 89 | 1014.4 |
| 20260831090109 | 77 | 180 | 0.0 | 0.0 | 0.00 | 0.00 | 0.00 | 89 | 1014.5 |
| 20260831085552 | 78 | 180 | 0.0 | 0.0 | 0.00 | 0.00 | 0.00 | 89 | 1014.5 |
| 20260831084613 | 78 | 180 | 0.0 | 0.0 | 0.00 | 0.00 | 0.00 | 89 | 1014.5 |
| 20260831084105 | 78 | 181 | 0.0 | 0.0 | 0.00 | 0.00 | 0.00 | 88 | 1014.5 |
| 20260831083114 | 78 | 181 | 0.0 | 0.0 | 0.00 | 0.00 | 0.00 | 88 | 1014.5 |
| 20260831082629 | 78 | 181 | 0.0 | 0.0 | 0.00 | 0.00 | 0.00 | 88 | 1014.5 |
| 20260831082134 | 78 | 181 | 0.0 | 0.0 | 0.00 | 0.00 | 0.00 | 88 | 1014.6 |
| 20260831081601 | 78 | 181 | 0.0 | 0.0 | 0.00 | 0.00 | 0.00 | 88 | 1014.7 |
| 20260831081112 | 78 | 181 | 0.0 | 0.0 | 0.00 | 0.00 | 0.00 | 88 | 1014.7 |
| 20260831080132 | 78 | 181 | 0.0 | 0.0 | 0.00 | 0.00 | 0.00 | 88 | 1014.7 |
| 20260831075637 | 78 | 182 | 0.0 | 0.0 | 0.00 | 0.00 | 0.00 | 88 | 1014.7 |
| 20260831075123 | 78 | 182 | 0.0 | 0.0 | 0.00 | 0.00 | 0.00 | 88 | 1014.7 |
| 20260831074551 | 78 | 182 | 0.0 | 1.7 | 0.00 | 0.00 | 0.00 | 88 | 1014.7 |
| 20260831074059 | 78 | 182 | 0.0 | 2.6 | 0.00 | 0.00 | 0.00 | 87 | 1014.6 |
| 20260831073121 | 78 | 182 | 0.9 | 2.6 | 0.00 | 0.00 | 0.00 | 87 | 1014.6 |
| 20260831072611 | 79 | 182 | 0.0 | 1.7 | 0.00 | 0.00 | 0.00 | 87 | 1014.6 |
| 20260831071634 | 79 | 183 | 0.0 | 0.0 | 0.00 | 0.00 | 0.00 | 86 | 1014.7 |
| 20260831071146 | 79 | 183 | 0.0 | 0.0 | 0.00 | 0.00 | 0.00 | 85 | 1014.8 |
| 20260831070638 | 79 | 183 | 0.0 | 0.0 | 0.00 | 0.00 | 0.00 | 85 | 1014.9 |
| 20260831070050 | 79 | 183 | 0.0 | 0.0 | 0.00 | 0.00 | 0.00 | 85 | 1014.8 |
| 20260831065620 | 79 | 183 | 0.0 | 0.0 | 0.00 | 0.00 | 0.00 | 85 | 1014.9 |
| 20260831065049 | 79 | 184 | 0.0 | 0.0 | 0.00 | 0.00 | 0.00 | 85 | 1014.9 |
| 20260831064542 | 79 | 184 | 0.0 | 2.6 | 0.00 | 0.00 | 0.00 | 85 | 1014.9 |
| 20260831064120 | 79 | 184 | 0.9 | 2.6 | 0.00 | 0.00 | 0.00 | 85 | 1014.9 |
| 20260831063549 | 79 | 184 | 0.9 | 2.6 | 0.00 | 0.00 | 0.00 | 84 | 1014.9 |
| 20260831063041 | 80 | 184 | 0.9 | 2.6 | 0.00 | 0.00 | 0.00 | 84 | 1014.9 |
| 20260831062550 | 80 | 184 | 1.7 | 2.6 | 0.00 | 0.00 | 0.00 | 84 | 1014.9 |
| 20260831062101 | 80 | 183 | 0.9 | 3.5 | 0.00 | 0.00 | 0.00 | 84 | 1014.9 |
| 20260831061541 | 80 | 183 | 0.9 | 3.5 | 0.00 | 0.00 | 0.00 | 84 | 1014.8 |
| 20260831061043 | 80 | 184 | 1.7 | 3.5 | 0.00 | 0.00 | 0.00 | 83 | 1014.9 |
| 20260831060620 | 80 | 184 | 1.7 | 4.3 | 0.00 | 0.00 | 0.00 | 83 | 1014.9 |
| 20260831060057 | 80 | 169 | 2.6 | 5.2 | 0.00 | 0.00 | 0.00 | 83 | 1014.8 |
| 20260831055540 | 80 | 180 | 2.6 | 4.3 | 0.00 | 0.00 | 0.00 | 83 | 1014.8 |
| 20260831055049 | 81 | 181 | 2.6 | 4.3 | 0.00 | 0.00 | 0.00 | 82 | 1014.8 |
| 20260831054553 | 81 | 174 | 1.7 | 7.0 | 0.00 | 0.00 | 0.00 | 82 | 1014.8 |
| 20260831054103 | 81 | 172 | 3.5 | 7.0 | 0.00 | 0.00 | 0.00 | 82 | 1014.7 |
| 20260831053547 | 81 | 170 | 3.5 | 7.8 | 0.00 | 0.00 | 0.00 | 82 | 1014.7 |
| 20260831053048 | 81 | 166 | 3.5 | 7.8 | 0.00 | 0.00 | 0.00 | 81 | 1014.6 |
| 20260831052557 | 81 | 150 | 5.2 | 7.8 | 0.00 | 0.00 | 0.00 | 81 | 1014.6 |
| 20260831052059 | 81 | 145 | 5.2 | 8.7 | 0.00 | 0.00 | 0.00 | 81 | 1014.6 |
| 20260831051559 | 82 | 173 | 4.3 | 8.7 | 0.00 | 0.00 | 0.00 | 81 | 1014.6 |
| 20260831051042 | 82 | 150 | 6.1 | 8.7 | 0.00 | 0.00 | 0.00 | 80 | 1014.6 |
| 20260831050554 | 82 | 150 | 5.2 | 7.8 | 0.00 | 0.00 | 0.00 | 80 | 1014.5 |
| 20260831045540 | 82 | 179 | 4.3 | 7.0 | 0.00 | 0.00 | 0.00 | 79 | 1014.4 |
| 20260831045053 | 82 | 171 | 4.3 | 7.0 | 0.00 | 0.00 | 0.00 | 79 | 1014.4 |
| 20260831044658 | 83 | 180 | 4.3 | 7.0 | 0.00 | 0.00 | 0.00 | 79 | 1014.5 |
| 20260831044047 | 83 | 171 | 5.2 | 7.0 | 0.00 | 0.00 | 0.00 | 78 | 1014.4 |
| 20260831043109 | 83 | 179 | 3.5 | 7.8 | 0.00 | 0.00 | 0.00 | 78 | 1014.3 |
| 20260831042624 | 83 | 161 | 4.3 | 7.0 | 0.00 | 0.00 | 0.00 | 77 | 1014.4 |
| 20260831041625 | 84 | 170 | 4.3 | 7.0 | 0.00 | 0.00 | 0.00 | 77 | 1014.3 |
| 20260831041116 | 84 | 181 | 4.3 | 8.7 | 0.00 | 0.00 | 0.00 | 76 | 1014.3 |
| 20260831040613 | 84 | 190 | 6.1 | 7.8 | 0.00 | 0.00 | 0.00 | 76 | 1014.4 |
| 20260831040045 | 84 | 184 | 4.3 | 7.8 | 0.00 | 0.00 | 0.00 | 76 | 1014.3 |
| 20260831035151 | 84 | 178 | 6.1 | 13.0 | 0.00 | 0.00 | 0.00 | 75 | 1014.1 |
| 20260831034557 | 85 | 171 | 7.0 | 13.0 | 0.00 | 0.00 | 0.00 | 75 | 1014.1 |
| 20260831034101 | 85 | 176 | 6.1 | 10.4 | 0.00 | 0.00 | 0.00 | 74 | 1014.0 |
| 20260831033613 | 85 | 156 | 6.1 | 12.2 | 0.00 | 0.00 | 0.00 | 74 | 1013.9 |
| 20260831033042 | 85 | 161 | 7.0 | 12.2 | 0.00 | 0.00 | 0.00 | 74 | 1013.8 |
| 20260831032544 | 85 | 163 | 7.0 | 9.6 | 0.00 | 0.00 | 0.00 | 74 | 1013.7 |
| 20260831031606 | 86 | 164 | 6.1 | 9.6 | 0.00 | 0.00 | 0.00 | 73 | 1013.7 |
| 20260831031118 | 86 | 174 | 6.1 | 9.6 | 0.00 | 0.00 | 0.00 | 72 | 1013.6 |
| 20260831030628 | 86 | 153 | 6.1 | 12.2 | 0.00 | 0.00 | 0.00 | 72 | 1013.5 |
| 20260831030050 | 86 | 167 | 7.0 | 12.2 | 0.00 | 0.00 | 0.00 | 71 | 1013.6 |
| 20260831025602 | 86 | 190 | 5.2 | 9.6 | 0.00 | 0.00 | 0.00 | 71 | 1013.6 |
| 20260831024619 | 87 | 164 | 5.2 | 7.8 | 0.00 | 0.00 | 0.00 | 71 | 1013.5 |
| 20260831024131 | 87 | 185 | 4.3 | 7.8 | 0.00 | 0.00 | 0.00 | 70 | 1013.3 |
| 20260831023637 | 87 | 173 | 4.3 | 7.0 | 0.00 | 0.00 | 0.00 | 70 | 1013.1 |
| 20260831023104 | 87 | 178 | 3.5 | 7.8 | 0.00 | 0.00 | 0.00 | 69 | 1013.1 |
| 20260831022608 | 87 | 177 | 6.1 | 9.6 | 0.00 | 0.00 | 0.00 | 69 | 1013.0 |
| 20260831021610 | 87 | 162 | 7.0 | 8.7 | 0.00 | 0.00 | 0.00 | 68 | 1012.8 |
| 20260831021114 | 87 | 150 | 5.2 | 8.7 | 0.00 | 0.00 | 0.00 | 68 | 1012.8 |
| 20260831020626 | 88 | 166 | 6.1 | 8.7 | 0.00 | 0.00 | 0.00 | 68 | 1012.8 |
| 20260831015548 | 88 | 136 | 4.3 | 7.8 | 0.00 | 0.00 | 0.00 | 66 | 1012.7 |
| 20260831014610 | 88 | 157 | 3.5 | 7.8 | 0.00 | 0.00 | 0.00 | 65 | 1012.4 |
| 20260831014057 | 89 | 190 | 4.3 | 7.0 | 0.00 | 0.00 | 0.00 | 64 | 1012.4 |
| 20260831013603 | 89 | 184 | 5.2 | 7.0 | 0.00 | 0.00 | 0.00 | 63 | 1012.3 |
| 20260831013155 | 89 | 172 | 5.2 | 8.7 | 0.00 | 0.00 | 0.00 | 62 | 1012.3 |
| 20260831012624 | 90 | 182 | 5.2 | 8.7 | 0.00 | 0.00 | 0.00 | 61 | 1012.4 |
| 20260831012128 | 90 | 172 | 4.3 | 6.1 | 0.00 | 0.00 | 0.00 | 60 | 1012.4 |
| 20260831011553 | 90 | 188 | 4.3 | 8.7 | 0.00 | 0.00 | 0.00 | 59 | 1012.3 |
| 20260831011106 | 91 | 159 | 5.2 | 9.6 | 0.00 | 0.00 | 0.00 | 59 | 1012.3 |
| 20260831010609 | 91 | 183 | 5.2 | 9.6 | 0.00 | 0.00 | 0.00 | 55 | 1012.3 |
| 20260831010042 | 91 | 180 | 6.1 | 9.6 | 0.00 | 0.00 | 0.00 | 54 | 1012.2 |
| 20260831005651 | 92 | 146 | 4.3 | 7.8 | 0.00 | 0.00 | 0.00 | 53 | 1012.1 |
| 20260831005132 | 92 | 143 | 2.6 | 6.1 | 0.00 | 0.00 | 0.00 | 53 | 1012.1 |
| 20260831004542 | 92 | 142 | 3.5 | 6.1 | 0.00 | 0.00 | 0.00 | 52 | 1012.1 |
| 20260831004047 | 93 | 144 | 3.5 | 6.1 | 0.00 | 0.00 | 0.00 | 52 | 1012.0 |
| 20260831003116 | 93 | 144 | 2.6 | 7.0 | 0.00 | 0.00 | 0.00 | 51 | 1011.9 |
| 20260831002559 | 93 | 143 | 3.5 | 7.8 | 0.00 | 0.00 | 0.00 | 51 | 1012.0 |
| 20260831001614 | 94 | 152 | 3.5 | 7.8 | 0.00 | 0.00 | 0.00 | 51 | 1012.0 |
| 20260831001105 | 94 | 144 | 4.3 | 9.6 | 0.00 | 0.00 | 0.00 | 50 | 1012.1 |
| 20260831000106 | 95 | 143 | 7.0 | 11.3 | 0.00 | 0.00 | 0.00 | 50 | 1012.0 |
| 20260830235600 | 95 | 125 | 7.0 | 10.4 | 0.00 | 0.00 | 0.00 | 49 | 1012.1 |